Find OneWeb SL0651

NORAD ID: 56080 Int'l Des: 2023-043 Owner: ONEWEBN Country: UK Constellation: oneweb operational
LEOCIRCULARPOLARONEWEB_TYPE

リアルタイム位置

3D地球を読み込み中...

OneWeb SL0651について

説明を読み込み中...

次回通過

Passes for default location (London). Set your location on the main map for personalized predictions.

高度履歴

Loading altitude history...

軌道要素

1 56080U 23043AL 26104.84067906 .00000222 00000-0 55565-3 0 9999
2 56080 87.8934 271.8608 0001742 104.8226 255.3097 13.15547404149299
Epoch: Apr 14, 2026 • Age: 6 hours

現在のステータス

高度 1211.7 km
速度 7.25 km/s
衛星直下点 64.62°N, 149.43°W
打ち上げ日 Mar 26, 2023
運用期間 3 years
タイプ internet

技術仕様

分類 Payload
質量 148.00 kg
乾燥質量 140.00 kg
総質量 148.00 kg
長さ 1.30 m
直径 1.00 m
スパン 5.00 m
形状 Trapezoid+2 pan
製造者 ONEWUS
バスタイプ ARROW
フェーズステータス In Orbit
所有者/国 ONEWEBN/UK

Most Searched